FIN1RE EFHK-EYVI

Flight info

Callsign FIN1RE
Flight time 1h 2m
Altitude 38000
Route KOIVU Y123 LARTI DCT DOLAT/N0411F370 DCT IRBEX DCT MURUN DCT PIFBO
Aircraft E190/M-SDE3GILORVW/S

Departure

Time 2026-04-20 13:11
Airport Helsinki Vantaa Airport (EFHK)

Arrival

Time 2026-04-20 14:13
Airport Vilnius International Airport (EYVI)
Time Latitude Longitude Altitude Speed Heading
2026-04-20 12:20 60.31302 24.97540 162 ft 0 kts 275°
2026-04-20 13:01 60.31302 24.97547 162 ft 3 kts 275°
2026-04-20 13:02 60.31299 24.97599 161 ft 3 kts 276°
2026-04-20 13:02 60.31299 24.97647 160 ft 4 kts 240°
2026-04-20 13:02 60.31317 24.97679 159 ft 4 kts 194°
2026-04-20 13:02 60.31327 24.97684 159 ft 1 kts 192°
2026-04-20 13:03 60.31328 24.97684 159 ft 0 kts 192°
2026-04-20 13:06 60.31324 24.97683 159 ft 2 kts 191°
2026-04-20 13:06 60.31305 24.97675 159 ft 5 kts 192°
2026-04-20 13:06 60.31260 24.97658 161 ft 8 kts 184°
2026-04-20 13:07 60.31195 24.97710 161 ft 12 kts 152°
2026-04-20 13:07 60.31160 24.97845 160 ft 14 kts 67°
2026-04-20 13:07 60.31166 24.98019 158 ft 14 kts 135°
2026-04-20 13:07 60.31070 24.98122 157 ft 17 kts 152°
2026-04-20 13:08 60.30957 24.98223 157 ft 15 kts 156°
2026-04-20 13:08 60.30855 24.98312 157 ft 17 kts 156°
2026-04-20 13:08 60.30751 24.98403 157 ft 15 kts 156°
2026-04-20 13:08 60.30708 24.98440 157 ft 7 kts 156°
2026-04-20 13:09 60.30662 24.98505 156 ft 10 kts 118°
2026-04-20 13:09 60.30665 24.98618 155 ft 9 kts 75°
2026-04-20 13:09 60.30697 24.98742 157 ft 10 kts 53°
2026-04-20 13:09 60.30760 24.98774 157 ft 11 kts 339°
2026-04-20 13:10 60.30776 24.98758 157 ft 0 kts 333°
2026-04-20 13:10 60.30778 24.98757 157 ft 2 kts 333°
2026-04-20 13:10 60.30875 24.98659 154 ft 37 kts 333°
2026-04-20 13:10 60.31349 24.98174 156 ft 118 kts 333°
2026-04-20 13:11 60.32312 24.97180 279 ft 183 kts 333°
2026-04-20 13:11 60.33426 24.95867 1372 ft 200 kts 327°
2026-04-20 13:11 60.34574 24.93934 2378 ft 226 kts 313°
2026-04-20 13:11 60.35301 24.91050 3465 ft 243 kts 286°
2026-04-20 13:12 60.35250 24.87678 4810 ft 244 kts 259°
2026-04-20 13:12 60.34449 24.84464 5421 ft 278 kts 232°
2026-04-20 13:12 60.33162 24.81321 6343 ft 301 kts 231°
2026-04-20 13:12 60.32042 24.77800 7300 ft 296 kts 244°
2026-04-20 13:13 60.31085 24.74131 8184 ft 296 kts 241°
2026-04-20 13:13 60.30023 24.70554 8956 ft 299 kts 237°
2026-04-20 13:13 60.29037 24.66841 9712 ft 303 kts 242°
2026-04-20 13:13 60.27653 24.63643 10436 ft 307 kts 212°
2026-04-20 13:14 60.25628 24.62077 10803 ft 319 kts 184°
2026-04-20 13:14 60.23386 24.61728 11434 ft 327 kts 182°
2026-04-20 13:14 60.21101 24.61191 12186 ft 333 kts 183°
2026-04-20 13:14 60.19569 24.60819 12715 ft 336 kts 183°
2026-04-20 13:15 60.17231 24.60220 13553 ft 341 kts 184°
2026-04-20 13:15 60.14085 24.59385 14654 ft 347 kts 184°
2026-04-20 13:15 60.11673 24.58746 15462 ft 352 kts 183°
2026-04-20 13:15 60.09232 24.58110 16285 ft 356 kts 183°
2026-04-20 13:16 60.06752 24.57694 17061 ft 357 kts 172°
2026-04-20 13:16 60.04312 24.58465 17865 ft 356 kts 162°
2026-04-20 13:16 60.02672 24.59186 18425 ft 359 kts 163°
2026-04-20 13:16 60.00205 24.60193 19109 ft 364 kts 163°
2026-04-20 13:17 59.97709 24.61205 19771 ft 368 kts 163°
2026-04-20 13:17 59.95191 24.62218 20432 ft 371 kts 163°
2026-04-20 13:17 59.92679 24.63227 21079 ft 375 kts 163°
2026-04-20 13:17 59.90077 24.64270 21745 ft 379 kts 162°
2026-04-20 13:18 59.87481 24.65309 22392 ft 382 kts 162°
2026-04-20 13:18 59.84874 24.66178 23017 ft 391 kts 171°
2026-04-20 13:18 59.82118 24.65627 23682 ft 405 kts 187°
2026-04-20 13:18 59.79362 24.64287 24271 ft 410 kts 189°
2026-04-20 13:19 59.76577 24.62963 24842 ft 413 kts 188°
2026-04-20 13:19 59.73732 24.61608 25433 ft 417 kts 188°
2026-04-20 13:19 59.70936 24.60284 25994 ft 420 kts 188°
2026-04-20 13:19 59.68043 24.58937 26536 ft 422 kts 186°
2026-04-20 13:20 59.65149 24.58554 26617 ft 425 kts 169°
2026-04-20 13:20 59.62164 24.59373 26850 ft 432 kts 166°
2026-04-20 13:20 59.59206 24.60140 27232 ft 437 kts 166°
2026-04-20 13:20 59.56181 24.60919 27662 ft 440 kts 166°
2026-04-20 13:21 59.53095 24.61694 28105 ft 442 kts 166°
2026-04-20 13:21 59.50029 24.62455 28528 ft 445 kts 167°
2026-04-20 13:21 59.46991 24.63206 28929 ft 448 kts 167°
2026-04-20 13:21 59.43891 24.63964 29333 ft 450 kts 167°
2026-04-20 13:22 59.40785 24.64721 29878 ft 449 kts 167°
2026-04-20 13:22 59.37689 24.65467 30467 ft 447 kts 166°
2026-04-20 13:22 59.34603 24.66209 30915 ft 446 kts 166°
2026-04-20 13:22 59.31525 24.66952 31331 ft 445 kts 166°
2026-04-20 13:23 59.28452 24.67690 31740 ft 445 kts 166°
2026-04-20 13:23 59.25386 24.68427 32142 ft 444 kts 166°
2026-04-20 13:23 59.22314 24.69163 32540 ft 443 kts 166°
2026-04-20 13:23 59.19257 24.69894 32935 ft 442 kts 166°
2026-04-20 13:24 59.16205 24.70623 33348 ft 442 kts 166°
2026-04-20 13:24 59.13159 24.71348 33752 ft 441 kts 166°
2026-04-20 13:24 59.10115 24.72072 34160 ft 440 kts 166°
2026-04-20 13:24 59.07076 24.72794 34505 ft 440 kts 166°
2026-04-20 13:25 59.04032 24.73517 34787 ft 441 kts 166°
2026-04-20 13:25 59.00986 24.74240 35095 ft 441 kts 167°
2026-04-20 13:25 58.97935 24.74962 35412 ft 442 kts 167°
2026-04-20 13:25 58.94884 24.75683 35726 ft 442 kts 167°
2026-04-20 13:26 58.91828 24.76404 36016 ft 443 kts 167°
2026-04-20 13:26 58.88766 24.77125 36300 ft 443 kts 167°
2026-04-20 13:26 58.85746 24.77836 36577 ft 444 kts 167°
2026-04-20 13:26 58.82681 24.78557 36874 ft 444 kts 168°
2026-04-20 13:27 58.79613 24.79289 37145 ft 444 kts 168°
2026-04-20 13:27 58.76546 24.80021 37408 ft 444 kts 168°
2026-04-20 13:27 58.73478 24.80753 37671 ft 445 kts 168°
2026-04-20 13:27 58.70406 24.81483 37931 ft 445 kts 168°
2026-04-20 13:28 58.67332 24.82213 38196 ft 445 kts 168°
2026-04-20 13:28 58.64288 24.82932 38306 ft 438 kts 168°
2026-04-20 13:28 58.61285 24.83630 38270 ft 432 kts 168°
2026-04-20 13:29 58.55340 24.85018 38265 ft 429 kts 168°
2026-04-20 13:29 58.49425 24.86397 38278 ft 428 kts 168°
2026-04-20 13:30 58.43504 24.87772 38278 ft 428 kts 168°
2026-04-20 13:30 58.37590 24.89140 38273 ft 428 kts 168°
2026-04-20 13:31 58.31673 24.90503 38264 ft 428 kts 168°
2026-04-20 13:31 58.25753 24.91864 38274 ft 428 kts 169°
2026-04-20 13:32 58.19836 24.93219 38270 ft 429 kts 169°
2026-04-20 13:32 58.13911 24.94570 38244 ft 429 kts 169°
2026-04-20 13:33 58.08034 24.95905 38227 ft 428 kts 169°
2026-04-20 13:33 58.02122 24.97244 38224 ft 428 kts 169°
2026-04-20 13:34 57.96127 24.97508 38220 ft 433 kts 176°
2026-04-20 13:34 57.90110 24.97451 38216 ft 432 kts 176°
2026-04-20 13:35 57.84092 24.97408 38217 ft 432 kts 176°
2026-04-20 13:35 57.78073 24.97369 38218 ft 432 kts 176°
2026-04-20 13:36 57.72058 24.97332 38199 ft 432 kts 176°
2026-04-20 13:36 57.66047 24.97298 38209 ft 432 kts 177°
2026-04-20 13:37 57.60033 24.97264 38237 ft 433 kts 177°
2026-04-20 13:37 57.54010 24.97231 38207 ft 432 kts 177°
2026-04-20 13:38 57.47995 24.97200 38207 ft 432 kts 177°
2026-04-20 13:38 57.42019 24.97169 38198 ft 432 kts 177°
2026-04-20 13:39 57.36005 24.97138 38194 ft 432 kts 177°
2026-04-20 13:39 57.29991 24.97107 38197 ft 432 kts 177°
2026-04-20 13:40 57.23976 24.97076 38200 ft 432 kts 177°
2026-04-20 13:40 57.17961 24.97044 38187 ft 432 kts 177°
2026-04-20 13:41 57.11945 24.97013 38190 ft 432 kts 177°
2026-04-20 13:41 57.05921 24.96983 38171 ft 434 kts 177°
2026-04-20 13:42 56.99887 24.96953 38189 ft 434 kts 177°
2026-04-20 13:42 56.90836 24.96906 38189 ft 433 kts 177°
2026-04-20 13:43 56.84800 24.96876 38187 ft 434 kts 177°
2026-04-20 13:43 56.78761 24.96844 38188 ft 434 kts 178°
2026-04-20 13:44 56.72728 24.96813 38186 ft 433 kts 178°
2026-04-20 13:44 56.66694 24.96784 38183 ft 434 kts 178°
2026-04-20 13:45 56.60699 24.96754 38176 ft 434 kts 178°
2026-04-20 13:45 56.54665 24.96723 38173 ft 433 kts 178°
2026-04-20 13:46 56.48632 24.96695 38170 ft 433 kts 178°
2026-04-20 13:46 56.42606 24.96664 38159 ft 434 kts 178°
2026-04-20 13:47 56.36570 24.96633 38162 ft 433 kts 178°
2026-04-20 13:47 56.30541 24.96707 38161 ft 433 kts 178°
2026-04-20 13:48 56.24486 24.96793 37767 ft 440 kts 177°
2026-04-20 13:48 56.21441 24.96833 37579 ft 435 kts 177°
2026-04-20 13:48 56.18387 24.96876 36928 ft 441 kts 177°
2026-04-20 13:49 56.15319 24.96914 36374 ft 440 kts 177°
2026-04-20 13:49 56.12257 24.96956 35762 ft 440 kts 177°
2026-04-20 13:49 56.09203 24.96993 35177 ft 438 kts 176°
2026-04-20 13:49 56.06155 24.97033 34592 ft 437 kts 176°
2026-04-20 13:50 56.03116 24.97071 33971 ft 436 kts 176°
2026-04-20 13:50 56.00092 24.97110 33428 ft 433 kts 176°
2026-04-20 13:50 55.97090 24.97156 32846 ft 452 kts 176°
2026-04-20 13:50 55.93950 24.97195 32239 ft 450 kts 176°
2026-04-20 13:51 55.90837 24.97233 31646 ft 443 kts 176°
2026-04-20 13:51 55.87772 24.97269 31053 ft 438 kts 176°
2026-04-20 13:51 55.84736 24.97307 30483 ft 434 kts 176°
2026-04-20 13:51 55.81727 24.97344 29895 ft 432 kts 175°
2026-04-20 13:52 55.78711 24.97384 29334 ft 435 kts 175°
2026-04-20 13:52 55.75715 24.97422 28740 ft 437 kts 175°
2026-04-20 13:52 55.72684 24.97460 28176 ft 434 kts 175°
2026-04-20 13:52 55.69674 24.97498 27590 ft 431 kts 175°
2026-04-20 13:53 55.66692 24.97533 27026 ft 427 kts 175°
2026-04-20 13:53 55.63732 24.97572 26458 ft 423 kts 175°
2026-04-20 13:53 55.60797 24.97607 25849 ft 421 kts 175°
2026-04-20 13:53 55.57885 24.97643 25359 ft 416 kts 175°
2026-04-20 13:54 55.54994 24.97680 24775 ft 414 kts 175°
2026-04-20 13:54 55.52130 24.97715 24238 ft 410 kts 175°
2026-04-20 13:54 55.49289 24.97750 23691 ft 407 kts 174°
2026-04-20 13:54 55.46468 24.97403 23152 ft 406 kts 183°
2026-04-20 13:55 55.43682 24.96622 22590 ft 405 kts 185°
2026-04-20 13:55 55.40915 24.95850 22065 ft 401 kts 185°
2026-04-20 13:55 55.38170 24.95085 21536 ft 398 kts 185°
2026-04-20 13:55 55.35446 24.94333 21000 ft 395 kts 185°
2026-04-20 13:56 55.32746 24.93591 20483 ft 391 kts 185°
2026-04-20 13:56 55.30069 24.92857 19967 ft 387 kts 185°
2026-04-20 13:56 55.27414 24.92238 19460 ft 381 kts 179°
2026-04-20 13:56 55.24780 24.92145 18629 ft 376 kts 174°
2026-04-20 13:57 55.22253 24.92556 18160 ft 360 kts 168°
2026-04-20 13:57 55.19753 24.93037 17712 ft 365 kts 169°
2026-04-20 13:57 55.17212 24.93510 17237 ft 367 kts 169°
2026-04-20 13:57 55.14679 24.93976 16719 ft 364 kts 170°
2026-04-20 13:58 55.12180 24.94431 16242 ft 359 kts 170°
2026-04-20 13:58 55.09703 24.94879 15772 ft 356 kts 170°
2026-04-20 13:58 55.07281 24.95315 15312 ft 353 kts 170°
2026-04-20 13:58 55.04844 24.95755 14845 ft 349 kts 171°
2026-04-20 13:59 55.02489 24.96170 14336 ft 328 kts 171°
2026-04-20 13:59 55.00275 24.96562 13865 ft 317 kts 170°
2026-04-20 13:59 54.98066 24.96961 13422 ft 317 kts 171°
2026-04-20 13:59 54.95883 24.97347 13001 ft 314 kts 171°
2026-04-20 14:00 54.93726 24.97731 12597 ft 310 kts 171°
2026-04-20 14:00 54.91592 24.98105 12184 ft 307 kts 171°
2026-04-20 14:00 54.89483 24.98480 11777 ft 303 kts 171°
2026-04-20 14:00 54.87396 24.98846 11375 ft 300 kts 171°
2026-04-20 14:01 54.85330 24.99211 10973 ft 298 kts 171°
2026-04-20 14:01 54.83264 24.99576 10432 ft 294 kts 172°
2026-04-20 14:01 54.81280 24.99916 9888 ft 280 kts 171°
2026-04-20 14:01 54.79388 25.00249 9361 ft 267 kts 171°
2026-04-20 14:02 54.77570 25.00566 8865 ft 261 kts 172°
2026-04-20 14:02 54.75751 25.00881 8400 ft 264 kts 171°
2026-04-20 14:02 54.73920 25.01202 7929 ft 266 kts 171°
2026-04-20 14:02 54.72079 25.01526 7465 ft 267 kts 172°
2026-04-20 14:03 54.70229 25.01845 7001 ft 265 kts 172°
2026-04-20 14:03 54.68440 25.02152 6579 ft 252 kts 172°
2026-04-20 14:03 54.66737 25.02445 6130 ft 243 kts 172°
2026-04-20 14:03 54.65055 25.02730 5654 ft 243 kts 172°
2026-04-20 14:04 54.63943 25.02918 5341 ft 242 kts 172°
2026-04-20 14:04 54.62281 25.03208 4851 ft 239 kts 172°
2026-04-20 14:04 54.60707 25.03474 4874 ft 221 kts 172°
2026-04-20 14:04 54.59172 25.03742 4902 ft 222 kts 172°
2026-04-20 14:05 54.57661 25.04000 4923 ft 215 kts 172°
2026-04-20 14:05 54.56181 25.04251 4983 ft 213 kts 172°
2026-04-20 14:05 54.54709 25.04505 5009 ft 213 kts 172°
2026-04-20 14:05 54.53232 25.04757 4990 ft 213 kts 172°
2026-04-20 14:06 54.51768 25.05009 4991 ft 208 kts 172°
2026-04-20 14:06 54.50339 25.05248 5000 ft 206 kts 172°
2026-04-20 14:06 54.48952 25.05672 4981 ft 200 kts 154°
2026-04-20 14:06 54.47963 25.07185 4978 ft 189 kts 111°
2026-04-20 14:07 54.47475 25.09252 5044 ft 188 kts 106°
2026-04-20 14:07 54.47000 25.11294 5027 ft 180 kts 107°
2026-04-20 14:07 54.46540 25.13295 4846 ft 183 kts 103°
2026-04-20 14:07 54.46508 25.15454 4280 ft 181 kts 68°
2026-04-20 14:08 54.47356 25.16948 3810 ft 173 kts 32°
2026-04-20 14:08 54.48314 25.18044 3624 ft 159 kts 33°
2026-04-20 14:08 54.49304 25.18771 3422 ft 151 kts 20°
2026-04-20 14:08 54.50253 25.19426 3224 ft 144 kts 25°
2026-04-20 14:09 54.51161 25.20116 3049 ft 144 kts 23°
2026-04-20 14:09 54.52101 25.20759 2867 ft 146 kts 23°
2026-04-20 14:09 54.53045 25.21391 2664 ft 144 kts 22°
2026-04-20 14:09 54.53950 25.22020 2458 ft 136 kts 24°
2026-04-20 14:10 54.54789 25.22608 2270 ft 126 kts 24°
2026-04-20 14:10 54.55601 25.23172 2110 ft 126 kts 23°
2026-04-20 14:10 54.56393 25.23718 1982 ft 120 kts 22°
2026-04-20 14:10 54.57146 25.24232 1769 ft 116 kts 22°
2026-04-20 14:11 54.57872 25.24718 1596 ft 110 kts 23°
2026-04-20 14:11 54.58587 25.25203 1484 ft 111 kts 22°
2026-04-20 14:11 54.59304 25.25709 1312 ft 112 kts 23°
2026-04-20 14:11 54.60028 25.26226 1150 ft 112 kts 21°
2026-04-20 14:12 54.60734 25.26727 1013 ft 110 kts 18°
2026-04-20 14:12 54.61452 25.27217 853 ft 111 kts 21°
2026-04-20 14:12 54.62158 25.27711 692 ft 108 kts 21°
2026-04-20 14:12 54.62821 25.28166 601 ft 90 kts 21°
2026-04-20 14:13 54.63270 25.28476 610 ft 54 kts 24°
2026-04-20 14:13 54.63423 25.28523 610 ft 12 kts 306°
2026-04-20 14:13 54.63483 25.28412 613 ft 14 kts 345°
2026-04-20 14:13 54.63568 25.28387 622 ft 11 kts 358°
2026-04-20 14:14 54.63638 25.28416 621 ft 11 kts 24°
2026-04-20 14:14 54.63719 25.28476 622 ft 15 kts 23°
2026-04-20 14:14 54.63822 25.28551 636 ft 16 kts 22°
2026-04-20 14:14 54.63916 25.28614 635 ft 13 kts 21°
2026-04-20 14:15 54.63993 25.28668 640 ft 11 kts 22°
2026-04-20 14:15 54.64086 25.28704 644 ft 17 kts 356°
2026-04-20 14:15 54.64201 25.28685 649 ft 17 kts 355°
2026-04-20 14:15 54.64302 25.28669 649 ft 15 kts 355°
2026-04-20 14:16 54.64394 25.28647 651 ft 10 kts 352°
2026-04-20 14:16 54.64408 25.28549 647 ft 13 kts 266°
2026-04-20 14:16 54.64408 25.28381 642 ft 10 kts 278°
2026-04-20 14:16 54.64425 25.28266 638 ft 9 kts 263°
2026-04-20 14:17 54.64393 25.28192 636 ft 2 kts 228°
2026-04-20 14:17 54.64386 25.28178 635 ft 0 kts 228°